Regional Weather Roundup
Issued by NWS

Home | Current Version | Previous Version | Graphics & Text | Print | Product List | Glossary On
Versions: 1 2 3 4 5 6 7 8 9 10 11 12 13 14 15 16 17 18 19 20 21 22 23 24 25 26 27 28 29 30 31 32 33 34 35 36 37 38 39 40 41 42 43 44 45 46 47 48 49 50
000
ASUS45 KTFX 250104
RWRMT
MONTANA HOURLY WEATHER ROUNDUP
NATIONAL WEATHER SERVICE GREAT FALLS MT
704 PM MDT THU JUL 24 2014

NOTE: "FAIR" INDICATES FEW OR NO CLOUDS BELOW 12000 FEET WITH NO
SIGNIFICANT WEATHER AND/OR OBSTRUCTIONS TO VISIBILITY.

* THESE STATIONS ARE NOT UNDER NWS QUALITY CONTROL. THEY DO NOT
   REPORT WEATHER SUCH AS PRECIPITATION OR FOG.

MTZ001>007-043-250200-
WEST OF THE DIVIDE
CITY           SKY/WX    TMP DP  RH WIND       PRES   REMARKS
KALISPELL      CLOUDY    59  39  48 SW9       30.09S
MISSOULA       CLOUDY    70  36  29 NW16G21   30.10S
BUTTE          CLEAR     70  27  20 NW14      30.07F
MULLAN PASS    CLOUDY    46  37  71 VRB6      30.18S
* ESSEX        N/A       57  36  46 S3G10      N/A
* LINCOLN      N/A       64  34  33 SW7G19     N/A
* LOOKOUT PASS N/A       54  40  59 SE6G12     N/A
* POLSON       N/A       58  37  46 W2G8       N/A
* RONAN APT    PTCLDY    64  37  37 SW6        N/A
* SEELEY LAKE  N/A       63  33  33 NW9G22     N/A
* THOMP F APT  CLEAR     76  15  10 S14G27     N/A
$$

MTZ008-052>055-250200-
SOUTHWEST MONTANA
CITY           SKY/WX    TMP DP  RH WIND       PRES   REMARKS
BOZEMAN        CLEAR     73  39  29 N12       29.98S
DILLON         CLEAR     73  34  24 NW9       30.02S
W YELLOWSTONE  PTCLDY    70  30  23 SW23G30   30.11S
* THREE FORKS  CLEAR     81  34  18 NW11G17    N/A
* BOULDER HILL N/A       68  28  22 S8G15      N/A
* MONIDA PASS  N/A       75  10   8 NW15G20    N/A
* RAYNOLDS PAS N/A       73  56  55 S20G27     N/A
* WHITEHALL    N/A       79  26  14 NW15G26    N/A
* WISE RIVER   N/A       70  28  21 NW14G22    N/A
$$

MTZ009>010-012-014-046-048-049-054-250200-
EAST SLOPES AND CENTRAL MONTANA
CITY           SKY/WX    TMP DP  RH WIND       PRES   REMARKS
CUT BANK       CLEAR     63  34  34 W39G54    29.90F
GREAT FALLS    CLEAR     72  27  19 W23G35    29.91F
HELENA         CLEAR     73  28  19 W13G25    29.97S
MALMSTROM AFB  CLEAR     72  28  19 W23G30    29.94R
* CONRAD       CLEAR     66  37  34 W14G25     N/A
* DEARBORN     N/A       71  29  21 S22G33     N/A
* EAST GLACIER N/A       55  33  43 W19G39     N/A
* MONARCH      N/A       65  18  16 W20G29     N/A
* ROGERS PASS  N/A       59  28  31 SE24G52    N/A
* SAINT MARY   N/A       54  38  55 S12G35     N/A
* SWEET GRASS  N/A       64  31  29 W22G32     N/A
$$

MTZ011-013-016-021-035-040-045-047-050-051-250200-
NORTH CENTRAL MONTANA
CITY           SKY/WX    TMP DP  RH WIND       PRES   REMARKS
HAVRE          CLEAR     73  36  26 W22G28    29.84F
LEWISTOWN      CLEAR     73  27  18 NW18G29   29.91S
* CHESTER      N/A       69  30  23 W19G36     N/A
* DENTON       N/A       74  29  19 W27G37     N/A
* JUDITH GAP   N/A       75  43  32 N5G14      N/A
* LOMA         N/A       73  32  22 W19G33     N/A
$$

MTZ017>020-022>027-061-062-250200-
NORTHEAST MONTANA
CITY           SKY/WX    TMP DP  RH WIND       PRES   REMARKS
GLASGOW        PTCLDY    75  45  34 NW29G38   29.75R
GLENDIVE       TSTM      72  68  87 N21G35    29.68R VSB 2
JORDAN         CLEAR     77  46  33 NW23G32   29.77S
SIDNEY         CLOUDY    81  68  65 SE7       29.61S HI  84
WOLF POINT     CLOUDY    68  55  63 N25G44    29.75R
* BEAVER HILL  N/A       84  68  59 SE18G26    N/A   HI  87
* CIRCLE       N/A       71  53  53 NW32G39    N/A
* LINDSAY DVD  N/A       68  59  73 NW34G45    N/A
* NAVAJO       N/A       61  60  97 W17        N/A
$$

MTZ028>042-056>058-250200-
SOUTHCENTRAL AND SOUTHEAST MONTANA
CITY           SKY/WX    TMP DP  RH WIND       PRES   REMARKS
BAKER          CLOUDY    82  68  63 E13       29.68F HI  85
BILLINGS       CLEAR     84  45  26 N21G31    29.82R
LIVINGSTON     PTCLDY    81  34  18 W23G32    29.93R
MILES CITY     PTCLDY    79  55  44 N40G51    29.70R
* LAUREL APT   CLEAR     84  46  26 NW15G26    N/A
* ROUNDUP APT  CLEAR     79  41  26 NW21G26    N/A
* ALZADA       N/A       74  62  66 VRB10      N/A
* HYSHAM       N/A       78  43  29 NW11G22    N/A
* LAME DEER    N/A       92  30  11 W24G35     N/A
* REED POINT   N/A       84  42  23 W17G27     N/A
* ROSCOE HILL  N/A       84  29  14 SW6G19     N/A
$$

REGIONAL REPORTS...DAKOTAS
CITY           SKY/WX    TMP DP  RH WIND       PRES   REMARKS
WILLISTON      MOCLDY    82  66  58 S8        29.65S HI  84
DICKINSON      MOCLDY    75  68  79 SE15      29.67F
CROSBY         N/A       73  72  97 E9        29.67R
TIOGA          CLEAR     73  73 100 SE8G17    29.71R
WATFORD CITY   CLEAR     77  66  69 S14G21    29.62F
BISMARCK       PTCLDY    79  66  65 SE18G24   29.71F
GRAND FORKS    MOCLDY    73  63  71 SE12      29.81F
FARGO          CLOUDY    73  63  71 S7        29.92R
BUFFALO SD     CLOUDY    72  64  76 NW20G33   29.72R
RAPID CITY     MOCLDY    88  73  61 S3        29.69F HI  96
$$

REGIONAL REPORTS...WYOMING/IDAHO/WASHINGTON
CITY           SKY/WX    TMP DP  RH WIND       PRES   REMARKS
GILLETTE       CLEAR     95  46  19 NW16G26   29.77R
SHERIDAN       PTCLDY    93  36  13 NW20      29.77R
YELLOWSTONE LA CLEAR     66  25  21 VRB7G20   30.24R
SALMON         CLEAR     79  32  18 N9        29.95S
MULLAN PASS    CLOUDY    46  37  71 VRB6      30.18S
SAND POINT     CLOUDY    57  46  67 CALM      30.09F
SPOKANE        PTCLDY    68  41  38 SW16G28   30.08F

$$



USA.gov is the U.S. government's official web portal to all federal, state and local government web resources and services.